Location: All Nations United Methodist Church
(33.0215°N, 96.7483°W)
Time: 14:42:10
(UTC+00:00)

Cosmos 1634 Rocket - Pass Details

Date: 24 January 2021
Orbit: 961 x 991 km, 82.9° (Epoch: 06 March)

Event Time Altitude Azimuth Distance (km) Brightness Sun altitude
Rises 12:21:59 0° 189° (S) 3,629 7.1 -13.7°
Reaches altitude 10° 12:24:29 10° 191° (S) 2,685 6.4 -13.2°
Maximum altitude 12:30:36 75° 276° (W) 996 3.9 -12.0°
Drops below altitude 10° 12:36:47 10° 2° (N) 2,703 6.2 -10.7°
Sets 12:39:19 0° 4° (N) 3,655 6.9 -10.2°
